User: anonymous   Login
Location: Albany
(35.0000°S, 118.0000°E)
Time: 21:33:02
(UTC-05:00)
Language:

Cosmos 1346 Rocket - Orbit

View from above orbital plane
View from above orbital plane
View from above satellite
View from above satellite

Ground track
Ground track

The orbit data is extracted from the following two-line orbital elements,

1 13121U 82027B   16043.46127843  .00002585  00000-0  16669-3 0  9997
2 13121  81.1710 322.6869 0027542 351.0798   8.9932 15.07675652843029
Epoch (UTC): 12 February 2016 11:04:14
Eccentricity: 0.0027542
inclination: 81.1710°
perigee height: 524 km
apogee height: 562 km
right ascension of ascending node: 322.6869°
argument of perigee: 351.0798°
revolutions per day: 15.07675652
mean anomaly at epoch: 8.9932°
orbit number at epoch: 84302

The dashed part of the orbit path shows where the satellite is in the earth's shadow,  

DLR